This is the latest recevied weather packets stored in our database for station/object W8AN. If no packets are shown the sender has not sent any weather packets the latest 1 day(s).
| Time | Temp. | Humidity | Pressure | Rain* | Wind** | Luminosity | Snow |
|---|---|---|---|---|---|---|---|
| 1777974719 | 15° C | 75% | 4258 hPa | 0 mm | 5.36 m/s, 232° | 0 W/m² | - |
| 1777974415 | 15° C | 75% | 4258.1 hPa | 0 mm | 3.58 m/s, 185° | 0 W/m² | - |
| 1777974111 | 15° C | 74% | 4258.2 hPa | 0 mm | 5.36 m/s, 237° | 0 W/m² | - |
| 1777973808 | 15° C | 74% | 4258 hPa | 0 mm | 4.92 m/s, 211° | 0 W/m² | - |
| 1777973505 | 15° C | 75% | 4258.3 hPa | 0 mm | 4.92 m/s, 229° | 0 W/m² | - |
| 1777973202 | 15° C | 75% | 4257.9 hPa | 0 mm | 3.58 m/s, 219° | 0 W/m² | - |
| 1777972901 | 15° C | 75% | 4258 hPa | 0 mm | 5.81 m/s, 249° | 0 W/m² | - |
| 1777972597 | 15° C | 75% | 4257.9 hPa | 0 mm | 4.02 m/s, 214° | 0 W/m² | - |
| 1777972295 | 14.44° C | 76% | 4258 hPa | 0 mm | 2.68 m/s, 236° | 0 W/m² | - |
| 1777971993 | 15° C | 76% | 4257.8 hPa | 0 mm | 2.24 m/s, 239° | 0 W/m² | - |
| 1777971691 | 15° C | 75% | 4257.9 hPa | 0 mm | 2.24 m/s, 211° | 0 W/m² | - |
| 1777971388 | 15° C | 75% | 4257.8 hPa | 0 mm | 3.13 m/s, 214° | 0 W/m² | - |
| 1777971086 | 15.56° C | 73% | 4258 hPa | 0 mm | 3.13 m/s, 207° | 0 W/m² | - |
| 1777970784 | 15.56° C | 74% | 4258.1 hPa | 0 mm | 4.02 m/s, 217° | 0 W/m² | - |
| 1777970482 | 15.56° C | 73% | 4257.7 hPa | 0 mm | 3.58 m/s, 256° | 0 W/m² | - |
| 1777970179 | 15.56° C | 73% | 4257.7 hPa | 0 mm | 3.58 m/s, 222° | 0 W/m² | - |
| 1777969875 | 15.56° C | 73% | 4257.4 hPa | 0 mm | 4.92 m/s, 199° | 0 W/m² | - |
| 1777969571 | 15.56° C | 74% | 4257.6 hPa | 0 mm | 4.47 m/s, 278° | 0 W/m² | - |
| 1777969269 | 15.56° C | 73% | 4257.8 hPa | 0 mm | 5.36 m/s, 221° | 0 W/m² | - |
| 1777968964 | 16.11° C | 72% | 4257.4 hPa | 0 mm | 5.36 m/s, 217° | 0 W/m² | - |
| 1777968662 | 16.11° C | 72% | 4257.3 hPa | 0 mm | 6.71 m/s, 219° | 0 W/m² | - |
| 1777968358 | 16.11° C | 71% | 4257.5 hPa | 0 mm | 7.6 m/s, 247° | 0 W/m² | - |
| 1777968055 | 16.67° C | 70% | 4257.5 hPa | 0 mm | 7.15 m/s, 238° | 0 W/m² | - |
| 1777967750 | 16.67° C | 67% | 4257.4 hPa | 0 mm | 6.71 m/s, 251° | 0 W/m² | - |
| 1777967448 | 17.22° C | 67% | 4257.4 hPa | 0 mm | 4.02 m/s, 224° | 0 W/m² | - |
* Rain latest hour (hover to see other rain measurements)
** Current wind speed in m/s (hover to see current wind gust speed)